Weather History for Fort Myers, FL

Change the Weather History Date:

Sunday, June 8, 2014

  Actual Average Record
Temperature  
Mean Temperature 84 °F 82 °F  
Max Temperature 93 °F 91 °F 97 °F (1985)
Min Temperature 74 °F 73 °F 63 °F (1956)
Degree Days  
Heating Degree Days 0 0  
Month to date heating degree days 0 0  
Since 1 June heating degree days 0 0  
Since 1 July heating degree days 178 287  
Cooling Degree Days 19 17  
Month to date cooling degree days 134 136  
Year to date cooling degree days 1325 1202  
Since 1 June cooling degree days 134 136  
Growing Degree Days 32 (Base 50)    
Moisture  
Dew Point 71 °F    
Average Humidity 70    
Maximum Humidity 94    
Minimum Humidity 47    
Precipitation  
Precipitation 0.00 in 0.30 in 5.30 in (1912)
Month to date precipitation 0.18 2.05  
Year to date precipitation 11.52 13.85  
Sea Level Pressure  
Sea Level Pressure 29.98 in    
Wind  
Wind Speed 7 mph (North)    
Max Wind Speed 20 mph    
Max Gust Speed 22 mph    
Visibility 10 miles    
Events Thunderstorm    
T = Trace of Precipitation, MM = Missing Value Source: NWS Daily Summary

Daily Weather History Graph

Daily Weather History Graph

Search for Another Location

Airport:

Trip Planner

Search our weather history database for the weather conditions in past years. The results will help you decide how hot, cold, wet, or windy it might be!

Date:

Astronomy

Jun. 08, 2014 Rise Set
Actual Time 6:33 AM EDT 8:19 PM EDT
Civil Twilight 6:07 AM EDT 8:45 PM EDT
Nautical Twilight 5:36 AM EDT 9:17 PM EDT
Astronomical Twilight 5:03 AM EDT 9:50 PM EDT
Moon 3:58 PM EDT (6/8) 3:00 AM EDT (6/8)
Length of Visible Light 14h 38m
Length of Day
13h 45m
Waxing Gibbous, 77% of the Moon is Illuminated
Jun 8
Waxing Gibbous
Jun 13
Full
Jun 19
Last Quarter
Jun 27
New
Jul 5
First Quarter

Hourly Weather History & Observations

Time (EDT) Temp. Heat Index Dew Point Humidity Pressure Visibility Wind Dir Wind Speed Gust Speed Precip Events Conditions
12:53 AM 80.1 °F 84.2 °F 73.0 °F 79% 29.99 in 10.0 mi North - - N/A   Partly Cloudy
1:53 AM 80.1 °F 83.8 °F 72.0 °F 76% 29.98 in 10.0 mi North - - N/A   Clear
2:53 AM 79.0 °F - 72.0 °F 79% 29.97 in 10.0 mi North - - N/A   Clear
3:53 AM 79.0 °F - 72.0 °F 79% 29.95 in 10.0 mi North - - N/A   Clear
4:53 AM 75.9 °F - 73.0 °F 91% 29.95 in 10.0 mi North - - N/A   Clear
5:53 AM 75.9 °F - 72.0 °F 87% 29.96 in 10.0 mi North - - N/A   Clear
6:53 AM 73.9 °F - 72.0 °F 93% 29.98 in 10.0 mi ENE 3.5 mph - N/A   Clear
7:53 AM 80.1 °F 84.2 °F 73.0 °F 79% 30.01 in 10.0 mi North - - N/A   Clear
8:53 AM 82.0 °F 87.4 °F 73.0 °F 74% 30.01 in 10.0 mi North - - N/A   Clear
9:53 AM 84.0 °F 89.6 °F 72.0 °F 67% 30.01 in 10.0 mi North 8.1 mph - N/A   Clear
10:53 AM 87.1 °F 92.0 °F 70.0 °F 57% 30.01 in 10.0 mi North 6.9 mph - N/A   Scattered Clouds
11:53 AM 88.0 °F 92.9 °F 70.0 °F 55% 30.01 in 10.0 mi Calm Calm - N/A   Scattered Clouds
12:53 PM 91.0 °F 95.2 °F 68.0 °F 47% 30.00 in 10.0 mi Variable 5.8 mph - N/A   Partly Cloudy
1:53 PM 90.0 °F 96.9 °F 72.0 °F 55% 29.99 in 10.0 mi West 13.8 mph - N/A   Mostly Cloudy
2:53 PM 91.0 °F 98.2 °F 72.0 °F 53% 29.97 in 10.0 mi West 15.0 mph - N/A   Clear
4:53 PM 89.1 °F 93.7 °F 69.1 °F 52% 29.91 in 10.0 mi North - - N/A   Unknown
5:53 PM 89.1 °F 93.7 °F 69.1 °F 52% 29.94 in 10.0 mi WNW 10.4 mph - N/A   Clear
6:53 PM 86.0 °F 91.5 °F 71.1 °F 61% 29.96 in 10.0 mi WNW 5.8 mph - N/A   Partly Cloudy
7:53 PM 82.9 °F 87.5 °F 71.1 °F 67% 29.95 in 10.0 mi Variable 4.6 mph - N/A   Mostly Cloudy
8:53 PM 82.9 °F 87.5 °F 71.1 °F 67% 29.97 in 10.0 mi NNW 10.4 mph - N/A   Scattered Clouds
9:53 PM 82.0 °F 86.3 °F 71.1 °F 69% 30.01 in 10.0 mi NNW 10.4 mph - N/A   Partly Cloudy
10:22 PM 82.0 °F 86.3 °F 71.1 °F 69% 30.01 in 10.0 mi ENE 5.8 mph - N/A Thunderstorm Partly Cloudy
10:37 PM 79.0 °F - 72.0 °F 79% 30.02 in 10.0 mi NE 17.3 mph - N/A   Scattered Clouds
10:53 PM 75.9 °F - 72.0 °F 87% 30.04 in 10.0 mi NE 11.5 mph - N/A   Mostly Cloudy
11:53 PM 75.0 °F - 71.1 °F 87% 30.01 in 10.0 mi East 5.8 mph - N/A   Partly Cloudy